Tracking 35331 objects as of 16-Sep-2026
HD Live streaming from Space Station
objects crossing your sky now

COSMOS 1484 DEB


COSMOS 1484 DEB is no longer on orbit


NORAD ID: 22943
Int'l Code: 1983-075AG
Launch date: July 24, 1983
Source: Commonwealth of Independent States (former USSR) (CIS)
Launch site: TYURATAM MISSILE AND SPACE COMPLEX (TTMTR)
Decay date: 1998-04-28

Note: This is SATELLITE DEBRIS
Your satellite tracking list
Your tracking list is empty




NASA's NSSDC Master Catalog

Two Line Element Set (TLE):
1 22943U 83075AG  98116.34826137 +.03271361 +83768-2 +15545-1 0  9990
2 22943 097.3557 063.5813 0031607 182.5967 177.7788 15.84189283245981
Source of the keplerian elements: AFSPC